IUS R/B(1), 25868

Orbit data source: Space-Track

IUS R/B(1), 25868 is space debris originally from a launch on Fri, 23 Jul 1999 UTC launched from the Air Force Eastern Test Range (AFETR). Debris objects in space refer to the collection of defunct objects orbiting the Earth. Examples of debris include non-operational satellites, rocket bodies, and fragments generated from explosions, collisions, or faulty payload assembly.

Loading next visibility...
Identifier
25868, 1999-040C
Orbit
Active
Country
Flag of USUS
Related business
Manufacturer
PW CSD
Mission
Spacecraft
Bus & Motor
ORBUS 21, ORBUS 21
Mass
1,164 kg wet, 1,164 kg dry
Launch date (UTC)
1999-07-23 (27 years ago)
Launch vehicle
Unknown
Launch site
Air Force Eastern Test Range (AFETR)
Object type
Payload
Rocket body
Debris
Shape & HBR
Cyl, Unknown HBR
Radar Cross Section
8.491 m², Large (>1 m²)

Expand to show TLE details & history
Last TLE update: 3 days ago

TLE from 3 days ago
0 IUS R/B(1)
1 25868U 99040C   26170.94816791  .00014834  00000-0  54545-3 0  9998
2 25868  28.5185  38.6848 4333979 252.6873  56.5502  6.87681543613841
Epoch: 2026-06-19T22:45Z
TLE epoch observation values (Epoch: 2026-06-19T22:45:21.707Z)
Latitude
-0.00003°
Longitude
149.17448°
Altitude
4,516.292 km
Speed
6.25 km/s
True Right ascension
02h 34m 44s
True Declination
0° 00' 00"
Sunlit
Object was in daylight at epoch
Visualization orbit readout
Latitude
Unknown
Longitude
Unknown
Altitude
Unknown
Speed
Unknown
Apparent Right ascension
Unknown
Apparent Declination
Unknown
Sunlit
N/A
Visualization observer readout
Local Sidereal Time
23:19:40
Azimuth
Unknown
Elevation
Unknown
Doppler factor
Unknown
Orbital elements
Apogee altitude
10,370.135 km
Perigee altitude
242.22 km
Semi-major axis
11,684.315 km
Eccentricity
0.4334
Inclination
28.5185°
RAAN
38.6848°
Arg. of periapsis
252.6873°
True anomaly
107.36304°
Mean anomaly
56.5502°
Eccentric anomaly
81.08187°
Mean motion
1.71846 °/min
Orbital period
209.49 mins
BSTAR
0.00054545
Loading maneuver chart data...
Computing Atmospheric mass density...
Loading historical data...
Loading historical data...
Loading historical data...
Loading historical data...
Loading historical data...
Loading historical data...
Loading historical data...

Documentation

Showing up to 5 results
|